When you browse on this site, cookies collect data to enhance your experience and personalize the content and advertising you see.
Visit our Privacy Policy to learn more. By continuing to use the site, you agree to this use of cookies and data.
  • In Austria
  • List of Countries
  • For 7 days
  • Water Temperature
  • Weather Map
  • News
  • Weather Widgets
  • user-avatar
    Login

    Hourly Weather Jambol

    Today, 26 February, Wednesday

    Time Temperature Precipitation Wind Pressure Humidity
    00:00 +7°C° 0 mm 2 mps 745 mmHg 78%
    01:00 +6°C° 0 mm 2 mps 745 mmHg 80%
    02:00 +5°C° 0 mm 3 mps 744 mmHg 82%
    03:00 +6°C° 0 mm 2 mps 744 mmHg 82%
    04:00 +6°C° 0 mm 2 mps 743 mmHg 83%
    05:00 +5°C° 0 mm 2 mps 743 mmHg 83%
    06:00 +6°C° 0 mm 2 mps 743 mmHg 83%
    07:00 +6°C° 0 mm 2 mps 742 mmHg 82%
    08:00 +7°C° 0 mm 2 mps 742 mmHg 82%
    09:00 +9°C° 0 mm 2 mps 742 mmHg 76%
    10:00 +11°C° 0 mm 3 mps 742 mmHg 71%
    11:00 +13°C° 0 mm 3 mps 742 mmHg 65%
    12:00 +14°C° 0 mm 4 mps 742 mmHg 63%
    13:00 +15°C° 0 mm 4 mps 741 mmHg 62%
    14:00 +16°C° 0 mm 5 mps 741 mmHg 60%
    15:00 +16°C° 0 mm 5 mps 740 mmHg 63%
    16:00 +15°C° 0 mm 5 mps 740 mmHg 65%
    17:00 +15°C° 0 mm 5 mps 739 mmHg 68%
    18:00 +14°C° 0 mm 5 mps 739 mmHg 71%
    19:00 +13°C° 0 mm 5 mps 739 mmHg 75%
    20:00 +12°C° 0 mm 5 mps 739 mmHg 78%
    21:00 +10°C° 0 mm 5 mps 739 mmHg 79%
    22:00 +10°C° 0 mm 5 mps 739 mmHg 80%
    23:00 +10°C° 0 mm 5 mps 739 mmHg 80%

    Tomorrow, 27 February, Thursday

    Time Temperature Precipitation Wind Pressure Humidity
    00:00 +10°C° 0 mm 6 mps 739 mmHg 81%
    01:00 +10°C° 0 mm 6 mps 739 mmHg 82%
    02:00 +10°C° 0 mm 6 mps 739 mmHg 83%
    03:00 +10°C° 0 mm 5 mps 739 mmHg 83%
    04:00 +9°C° 0 mm 5 mps 739 mmHg 83%
    05:00 +10°C° 0 mm 4 mps 738 mmHg 83%
    06:00 +10°C° 0 mm 4 mps 738 mmHg 83%
    07:00 +10°C° 0 mm 4 mps 739 mmHg 82%
    08:00 +10°C° 0 mm 4 mps 739 mmHg 81%
    09:00 +11°C° 0 mm 6 mps 739 mmHg 72%
    10:00 +13°C° 0 mm 8 mps 739 mmHg 62%
    11:00 +14°C° 0 mm 10 mps 739 mmHg 53%
    12:00 +13°C° 0.2 mm 8 mps 739 mmHg 55%
    13:00 +11°C° 0.2 mm 7 mps 739 mmHg 56%
    14:00 +10°C° 0.2 mm 6 mps 739 mmHg 58%
    15:00 +10°C° 0.1 mm 6 mps 740 mmHg 59%
    16:00 +9°C° 0.1 mm 5 mps 740 mmHg 60%
    17:00 +9°C° 0.1 mm 5 mps 741 mmHg 61%
    18:00 +7°C° 0 mm 5 mps 741 mmHg 61%
    19:00 +6°C° 0 mm 5 mps 742 mmHg 61%
    20:00 +5°C° 0 mm 4 mps 743 mmHg 61%
    21:00 +4°C° 0 mm 4 mps 744 mmHg 61%
    22:00 +4°C° 0 mm 4 mps 744 mmHg 62%
    23:00 +4°C° 0 mm 4 mps 745 mmHg 62%

    Day after tomorrow, 28 February, Friday

    Time Temperature Precipitation Wind Pressure Humidity
    00:00 +3°C° 0 mm 4 mps 746 mmHg 65%
    01:00 +3°C° 0 mm 3 mps 746 mmHg 67%
    02:00 +3°C° 0 mm 2 mps 747 mmHg 70%
    03:00 +3°C° 0 mm 2 mps 747 mmHg 71%
    04:00 +3°C° 0 mm 2 mps 747 mmHg 73%
    05:00 +3°C° 0 mm 1 mps 747 mmHg 75%
    06:00 +4°C° 0 mm 1 mps 747 mmHg 73%
    07:00 +4°C° 0 mm 1 mps 748 mmHg 71%
    08:00 +4°C° 0 mm 1 mps 748 mmHg 68%
    09:00 +5°C° 0 mm 2 mps 748 mmHg 62%
    10:00 +6°C° 0 mm 2 mps 747 mmHg 55%
    11:00 +8°C° 0 mm 3 mps 747 mmHg 49%
    12:00 +8°C° 0 mm 4 mps 747 mmHg 48%
    13:00 +8°C° 0 mm 4 mps 746 mmHg 47%
    14:00 +9°C° 0 mm 5 mps 746 mmHg 47%
    15:00 +10°C° 0 mm 4 mps 746 mmHg 50%
    16:00 +10°C° 0 mm 3 mps 746 mmHg 52%
    17:00 +10°C° 0 mm 2 mps 746 mmHg 55%
    18:00 +9°C° 0.1 mm 2 mps 746 mmHg 63%
    19:00 +8°C° 0.1 mm 3 mps 747 mmHg 70%
    20:00 +5°C° 0.1 mm 4 mps 748 mmHg 78%
    21:00 +5°C° 0.1 mm 4 mps 748 mmHg 76%
    22:00 +5°C° 0.1 mm 4 mps 748 mmHg 75%
    23:00 +5°C° 0.1 mm 4 mps 749 mmHg 73%

    29 February, Saturday

    Time Temperature Precipitation Wind Pressure Humidity
    00:00 +3°C° 0 mm 5 mps 749 mmHg 71%
    01:00 +3°C° 0 mm 5 mps 749 mmHg 69%
    02:00 +2°C° 0 mm 5 mps 749 mmHg 66%
    03:00 +3°C° 0 mm 4 mps 749 mmHg 66%
    04:00 +1°C° 0 mm 4 mps 750 mmHg 66%
    05:00 +1°C° 0 mm 4 mps 750 mmHg 67%
    06:00 +1°C° 0 mm 4 mps 750 mmHg 66%
    07:00 +1°C° 0 mm 4 mps 751 mmHg 65%
    08:00 +1°C° 0 mm 4 mps 752 mmHg 64%
    09:00 +4°C° 0 mm 4 mps 752 mmHg 57%
    10:00 +6°C° 0 mm 4 mps 752 mmHg 50%
    11:00 +7°C° 0 mm 4 mps 752 mmHg 44%
    12:00 +8°C° 0 mm 4 mps 752 mmHg 41%
    13:00 +10°C° 0 mm 4 mps 752 mmHg 37%
    14:00 +10°C° 0 mm 3 mps 752 mmHg 34%
    15:00 +10°C° 0 mm 3 mps 752 mmHg 36%
    16:00 +10°C° 0 mm 2 mps 752 mmHg 38%
    17:00 +11°C° 0 mm 1 mps 752 mmHg 40%
    18:00 +9°C° 0 mm 1 mps 752 mmHg 42%
    19:00 +8°C° 0 mm 1 mps 752 mmHg 44%
    20:00 +7°C° 0 mm 1 mps 752 mmHg 46%
    21:00 +6°C° 0 mm 1 mps 752 mmHg 49%
    22:00 +6°C° 0 mm 1 mps 752 mmHg 51%
    23:00 +5°C° 0 mm 1 mps 752 mmHg 54%

    1 March, Sunday

    Time Temperature Precipitation Wind Pressure Humidity
    00:00 +5°C° 0 mm 1 mps 752 mmHg 59%
    01:00 +5°C° 0 mm 1 mps 752 mmHg 64%
    02:00 +5°C° 0 mm 1 mps 752 mmHg 68%
    03:00 +5°C° 0 mm 1 mps 751 mmHg 71%
    04:00 +5°C° 0 mm 1 mps 751 mmHg 74%
    05:00 +4°C° 0 mm 2 mps 751 mmHg 76%
    06:00 +4°C° 0 mm 2 mps 751 mmHg 75%
    07:00 +4°C° 0 mm 2 mps 751 mmHg 73%
    08:00 +5°C° 0 mm 2 mps 751 mmHg 72%
    09:00 +6°C° 0 mm 2 mps 751 mmHg 67%
    10:00 +8°C° 0 mm 3 mps 751 mmHg 62%
    11:00 +10°C° 0 mm 3 mps 752 mmHg 57%
    12:00 +11°C° 0 mm 3 mps 751 mmHg 55%
    13:00 +12°C° 0 mm 4 mps 750 mmHg 54%
    14:00 +13°C° 0 mm 4 mps 750 mmHg 52%
    15:00 +13°C° 0 mm 4 mps 749 mmHg 55%
    16:00 +13°C° 0 mm 3 mps 749 mmHg 59%
    17:00 +13°C° 0 mm 3 mps 749 mmHg 62%
    18:00 +11°C° 0 mm 3 mps 749 mmHg 69%
    19:00 +10°C° 0 mm 3 mps 749 mmHg 76%
    20:00 +9°C° 0 mm 3 mps 749 mmHg 82%
    21:00 +8°C° 0 mm 3 mps 749 mmHg 85%
    22:00 +8°C° 0 mm 2 mps 749 mmHg 88%
    23:00 +8°C° 0 mm 2 mps 749 mmHg 90%

    2 March, Monday

    Time Temperature Precipitation Wind Pressure Humidity
    00:00 +8°C° 0 mm 2 mps 748 mmHg 92%
    01:00 +7°C° 0 mm 2 mps 748 mmHg 93%
    02:00 +7°C° 0 mm 2 mps 748 mmHg 94%
    03:00 +7°C° 0 mm 2 mps 747 mmHg 94%
    04:00 +7°C° 0 mm 2 mps 747 mmHg 95%
    05:00 +8°C° 0 mm 1 mps 747 mmHg 95%
    06:00 +9°C° 0 mm 1 mps 746 mmHg 93%
    07:00 +8°C° 0 mm 2 mps 746 mmHg 92%
    08:00 +9°C° 0 mm 2 mps 746 mmHg 91%
    09:00 +10°C° 0 mm 2 mps 746 mmHg 82%
    10:00 +12°C° 0 mm 3 mps 746 mmHg 74%
    11:00 +13°C° 0 mm 3 mps 746 mmHg 65%
    12:00 +14°C° 0 mm 3 mps 746 mmHg 62%
    13:00 +16°C° 0 mm 3 mps 745 mmHg 59%
    14:00 +17°C° 0 mm 3 mps 745 mmHg 56%
    15:00 +17°C° 0.1 mm 3 mps 745 mmHg 58%
    16:00 +16°C° 0.1 mm 2 mps 745 mmHg 60%
    17:00 +16°C° 0.1 mm 1 mps 745 mmHg 62%
    18:00 +15°C° 0 mm 1 mps 745 mmHg 66%
    19:00 +14°C° 0 mm 1 mps 746 mmHg 70%
    20:00 +12°C° 0 mm 1 mps 746 mmHg 74%
    21:00 +12°C° 0 mm 1 mps 746 mmHg 76%
    22:00 +12°C° 0 mm 1 mps 746 mmHg 78%
    23:00 +12°C° 0 mm 1 mps 746 mmHg 80%
    Show more